• In Czech Republic
  • List of Countries
  • For 7 days
  • Water Temperature
  • Satellite Maps
  • Weather Map
  • Weather Widgets
  • user-avatar
    Login

    Hourly Weather Zyliny

    Today, 23 September, Sunday

    Time Temperature Precipitation Wind Pressure Humidity
    00:00 +7°C° 0 mm 4 mps 744 mmHg 81%
    01:00 +7°C° 0 mm 4 mps 744 mmHg 81%
    02:00 +7°C° 0 mm 4 mps 744 mmHg 82%
    03:00 +7°C° 0 mm 4 mps 743 mmHg 82%
    04:00 +7°C° 0 mm 4 mps 743 mmHg 82%
    05:00 +7°C° 0 mm 5 mps 743 mmHg 82%
    06:00 +7°C° 0 mm 5 mps 743 mmHg 80%
    07:00 +8°C° 0 mm 5 mps 743 mmHg 78%
    08:00 +8°C° 0 mm 6 mps 743 mmHg 75%
    09:00 +10°C° 0 mm 6 mps 743 mmHg 69%
    10:00 +11°C° 0 mm 6 mps 743 mmHg 64%
    11:00 +12°C° 0 mm 7 mps 743 mmHg 58%
    12:00 +14°C° 0 mm 6 mps 743 mmHg 56%
    13:00 +14°C° 0 mm 6 mps 743 mmHg 54%
    14:00 +15°C° 0 mm 6 mps 743 mmHg 52%
    15:00 +14°C° 0.1 mm 5 mps 742 mmHg 54%
    16:00 +14°C° 0.1 mm 4 mps 742 mmHg 56%
    17:00 +14°C° 0.1 mm 4 mps 742 mmHg 58%
    18:00 +12°C° 0 mm 3 mps 741 mmHg 63%
    19:00 +11°C° 0 mm 3 mps 741 mmHg 68%
    20:00 +10°C° 0 mm 2 mps 741 mmHg 73%
    21:00 +10°C° 0.1 mm 2 mps 740 mmHg 77%
    22:00 +9°C° 0.1 mm 2 mps 739 mmHg 80%
    23:00 +9°C° 0.1 mm 2 mps 739 mmHg 84%

    Tomorrow, 24 September, Monday

    Time Temperature Precipitation Wind Pressure Humidity
    00:00 +9°C° 0.8 mm 2 mps 738 mmHg 87%
    01:00 +10°C° 0.8 mm 1 mps 737 mmHg 90%
    02:00 +10°C° 0.8 mm 1 mps 736 mmHg 93%
    03:00 +8°C° 1.3 mm 2 mps 736 mmHg 92%
    04:00 +8°C° 1.3 mm 3 mps 736 mmHg 92%
    05:00 +7°C° 1.3 mm 4 mps 735 mmHg 91%
    06:00 +7°C° 0.5 mm 4 mps 736 mmHg 91%
    07:00 +7°C° 0.5 mm 4 mps 736 mmHg 91%
    08:00 +7°C° 0.5 mm 4 mps 737 mmHg 90%
    09:00 +8°C° 0.2 mm 4 mps 737 mmHg 84%
    10:00 +10°C° 0.2 mm 5 mps 738 mmHg 77%
    11:00 +11°C° 0.2 mm 6 mps 738 mmHg 70%
    12:00 +11°C° 0.3 mm 6 mps 739 mmHg 68%
    13:00 +13°C° 0.3 mm 6 mps 739 mmHg 66%
    14:00 +12°C° 0.3 mm 7 mps 740 mmHg 63%
    15:00 +11°C° 0.4 mm 7 mps 740 mmHg 66%
    16:00 +10°C° 0.4 mm 6 mps 741 mmHg 68%
    17:00 +10°C° 0.4 mm 6 mps 741 mmHg 71%
    18:00 +9°C° 0.2 mm 6 mps 742 mmHg 74%
    19:00 +8°C° 0.2 mm 6 mps 743 mmHg 77%
    20:00 +7°C° 0.2 mm 6 mps 744 mmHg 80%
    21:00 +5°C° 0 mm 6 mps 744 mmHg 81%
    22:00 +5°C° 0 mm 5 mps 745 mmHg 81%
    23:00 +5°C° 0 mm 5 mps 746 mmHg 82%

    Day after tomorrow, 25 September, Tuesday

    Time Temperature Precipitation Wind Pressure Humidity
    00:00 +3°C° 0 mm 5 mps 747 mmHg 81%
    01:00 +3°C° 0 mm 5 mps 748 mmHg 81%
    02:00 +3°C° 0 mm 4 mps 748 mmHg 81%
    03:00 +3°C° 0 mm 4 mps 749 mmHg 81%
    04:00 +3°C° 0 mm 4 mps 749 mmHg 81%
    05:00 +3°C° 0 mm 4 mps 750 mmHg 81%
    06:00 +3°C° 0 mm 5 mps 750 mmHg 79%
    07:00 +5°C° 0 mm 5 mps 751 mmHg 76%
    08:00 +5°C° 0 mm 5 mps 751 mmHg 74%
    09:00 +5°C° 0.1 mm 6 mps 752 mmHg 69%
    10:00 +6°C° 0.1 mm 7 mps 752 mmHg 65%
    11:00 +8°C° 0.1 mm 7 mps 753 mmHg 60%
    12:00 +9°C° 0.2 mm 7 mps 753 mmHg 60%
    13:00 +9°C° 0.2 mm 7 mps 753 mmHg 60%
    14:00 +9°C° 0.2 mm 7 mps 754 mmHg 59%
    15:00 +8°C° 0.1 mm 7 mps 754 mmHg 61%
    16:00 +8°C° 0.1 mm 6 mps 755 mmHg 62%
    17:00 +8°C° 0.1 mm 6 mps 755 mmHg 63%
    18:00 +7°C° 0 mm 5 mps 756 mmHg 68%
    19:00 +6°C° 0 mm 4 mps 756 mmHg 73%
    20:00 +4°C° 0 mm 4 mps 757 mmHg 78%
    21:00 +4°C° 0 mm 3 mps 757 mmHg 80%
    22:00 +3°C° 0 mm 3 mps 758 mmHg 82%
    23:00 +3°C° 0 mm 3 mps 758 mmHg 84%

    26 September, Wednesday

    Time Temperature Precipitation Wind Pressure Humidity
    00:00 +3°C° 0 mm 3 mps 758 mmHg 84%
    01:00 +2°C° 0 mm 3 mps 758 mmHg 85%
    02:00 +2°C° 0 mm 3 mps 758 mmHg 85%
    03:00 +2°C° 0 mm 3 mps 758 mmHg 82%
    04:00 +2°C° 0 mm 3 mps 758 mmHg 79%
    05:00 +2°C° 0 mm 3 mps 758 mmHg 76%
    06:00 +3°C° 0 mm 4 mps 758 mmHg 70%
    07:00 +4°C° 0 mm 4 mps 758 mmHg 65%
    08:00 +5°C° 0 mm 5 mps 757 mmHg 59%
    09:00 +5°C° 0 mm 6 mps 757 mmHg 57%
    10:00 +8°C° 0 mm 6 mps 757 mmHg 55%
    11:00 +9°C° 0 mm 7 mps 756 mmHg 52%
    12:00 +10°C° 0 mm 7 mps 756 mmHg 53%
    13:00 +10°C° 0 mm 8 mps 755 mmHg 54%
    14:00 +11°C° 0 mm 8 mps 754 mmHg 55%
    15:00 +10°C° 0 mm 8 mps 753 mmHg 56%
    16:00 +10°C° 0 mm 7 mps 753 mmHg 58%
    17:00 +9°C° 0 mm 7 mps 752 mmHg 59%
    18:00 +9°C° 0.2 mm 7 mps 751 mmHg 62%
    19:00 +8°C° 0.2 mm 7 mps 751 mmHg 66%
    20:00 +8°C° 0.2 mm 7 mps 750 mmHg 69%
    21:00 +8°C° 0.3 mm 7 mps 750 mmHg 72%
    22:00 +7°C° 0.3 mm 8 mps 749 mmHg 76%
    23:00 +6°C° 0.3 mm 8 mps 749 mmHg 79%

    27 September, Thursday

    Time Temperature Precipitation Wind Pressure Humidity
    00:00 +7°C° 0.1 mm 8 mps 748 mmHg 80%
    01:00 +7°C° 0.1 mm 8 mps 748 mmHg 80%
    02:00 +7°C° 0.1 mm 8 mps 747 mmHg 80%
    03:00 +9°C° 0.1 mm 8 mps 747 mmHg 80%
    04:00 +9°C° 0.1 mm 8 mps 746 mmHg 81%
    05:00 +10°C° 0.1 mm 8 mps 746 mmHg 81%
    06:00 +10°C° 0.3 mm 8 mps 746 mmHg 83%
    07:00 +10°C° 0.3 mm 8 mps 746 mmHg 85%
    08:00 +11°C° 0.3 mm 7 mps 746 mmHg 88%
    09:00 +11°C° 0.4 mm 7 mps 746 mmHg 88%
    10:00 +12°C° 0.4 mm 7 mps 746 mmHg 89%
    11:00 +12°C° 0.4 mm 7 mps 746 mmHg 90%
    12:00 +14°C° 0.4 mm 7 mps 746 mmHg 90%
    13:00 +14°C° 0.4 mm 7 mps 746 mmHg 90%
    14:00 +14°C° 0.4 mm 6 mps 747 mmHg 90%
    15:00 +14°C° 0.3 mm 6 mps 746 mmHg 89%
    16:00 +14°C° 0.3 mm 6 mps 746 mmHg 89%
    17:00 +14°C° 0.3 mm 6 mps 746 mmHg 88%
    18:00 +14°C° 0.2 mm 6 mps 746 mmHg 89%
    19:00 +14°C° 0.2 mm 5 mps 746 mmHg 90%
    20:00 +14°C° 0.2 mm 5 mps 746 mmHg 90%
    21:00 +13°C° 0 mm 5 mps 746 mmHg 90%
    22:00 +13°C° 0 mm 6 mps 745 mmHg 91%
    23:00 +13°C° 0 mm 6 mps 745 mmHg 91%

    28 September, Friday

    Time Temperature Precipitation Wind Pressure Humidity
    00:00 +13°C° 0 mm 6 mps 744 mmHg 90%
    01:00 +12°C° 0 mm 7 mps 743 mmHg 89%
    02:00 +12°C° 0 mm 7 mps 743 mmHg 88%
    03:00 +12°C° 0.1 mm 8 mps 742 mmHg 87%
    04:00 +13°C° 0.1 mm 8 mps 742 mmHg 87%
    05:00 +13°C° 0.1 mm 8 mps 742 mmHg 86%
    06:00 +12°C° 0.3 mm 8 mps 743 mmHg 84%
    07:00 +11°C° 0.3 mm 7 mps 743 mmHg 83%
    08:00 +10°C° 0.3 mm 6 mps 744 mmHg 81%
    09:00 +10°C° 0 mm 6 mps 745 mmHg 74%
    10:00 +11°C° 0 mm 7 mps 745 mmHg 68%
    11:00 +12°C° 0 mm 7 mps 746 mmHg 61%
    12:00 +14°C° 0 mm 7 mps 747 mmHg 58%
    13:00 +14°C° 0 mm 6 mps 747 mmHg 54%
    14:00 +14°C° 0 mm 6 mps 748 mmHg 51%
    15:00 +13°C° 0 mm 6 mps 748 mmHg 54%
    16:00 +13°C° 0 mm 5 mps 748 mmHg 56%
    17:00 +12°C° 0 mm 4 mps 749 mmHg 58%
    18:00 +10°C° 0 mm 4 mps 749 mmHg 64%
    19:00 +9°C° 0 mm 3 mps 750 mmHg 70%
    20:00 +7°C° 0 mm 3 mps 751 mmHg 75%
    21:00 +7°C° 0 mm 3 mps 751 mmHg 78%
    22:00 +7°C° 0 mm 2 mps 752 mmHg 80%
    23:00 +6°C° 0 mm 2 mps 752 mmHg 82%
    Show more